,,Stat6,,Stat2,,Stat8,,Stat9,,Stat10,,Wind1,,Wind1,
time,status,PA1M_AVG,status,PR1M_SUM,status,RH1M_AVG,status,SR1M_AVG,status,TA1M_AVG,status,W1dAve1m,status,W1sAve1m,
2005-10-19, 00:00:01,VALID,918.917,VALID,0,VALID,100,VALID,-0.0509425,VALID,18.6113,VALID,213,VALID,0.241997,
2005-10-19, 00:01:01,VALID,918.893,VALID,0,VALID,100,VALID,-0.0339617,VALID,18.5889,VALID,205,VALID,0.351563,
2005-10-19, 00:02:01,VALID,918.872,VALID,0,VALID,100,VALID,-0.0509425,VALID,18.5827,VALID,183,VALID,0.70476,
2005-10-19, 00:03:01,VALID,918.831,VALID,0,VALID,100,VALID,-0.0509425,VALID,18.573,VALID,181,VALID,0.77111,
2005-10-19, 00:04:01,VALID,918.803,VALID,0,VALID,100,VALID,-0.0339617,VALID,18.576,VALID,180,VALID,0.726223,
2005-10-19, 00:05:00,VALID,918.746,VALID,0,VALID,100,VALID,-0.0849042,VALID,18.5797,VALID,180,VALID,0.666211,
2005-10-19, 00:06:01,VALID,918.705,VALID,0,VALID,100,VALID,-0.0679233,VALID,18.5829,VALID,180,VALID,0.426339,
2005-10-19, 00:07:01,VALID,918.678,VALID,0,VALID,100,VALID,-0.0679233,VALID,18.5859,VALID,180,VALID,0.340701,
2005-10-19, 00:08:01,VALID,918.665,VALID,0,VALID,100,VALID,-0.0339617,VALID,18.5956,VALID,180,VALID,0.0895833,
2005-10-19, 00:09:01,VALID,918.652,VALID,0,VALID,100,VALID,-0.0339617,VALID,18.615,VALID,180,VALID,0.00177557,
2005-10-19, 00:10:01,VALID,918.654,VALID,0,VALID,100,VALID,-0.0509425,VALID,18.618,VALID,180,VALID,0.00111607,
2005-10-19, 00:11:01,VALID,918.66,VALID,0,VALID,100,VALID,-0.0679233,VALID,18.6374,VALID,180,VALID,0.134722,
2005-10-19, 00:12:00,VALID,918.657,VALID,0,VALID,100,VALID,-0.0679233,VALID,18.6535,VALID,180,VALID,0.0704942,
2005-10-19, 00:13:01,VALID,918.651,VALID,0,VALID,100,VALID,-0.101885,VALID,18.657,VALID,180,VALID,0,
2005-10-19, 00:14:01,VALID,918.635,VALID,0,VALID,100,VALID,-0.0509425,VALID,18.66,VALID,180,VALID,0,
2005-10-19, 00:15:01,VALID,918.61,VALID,0,VALID,100,VALID,-0.0339617,VALID,18.6766,VALID,180,VALID,0,
2005-10-19, 00:16:01,VALID,918.597,VALID,0,VALID,100,VALID,-0.0679233,VALID,18.6895,VALID,180,VALID,0,
2005-10-19, 00:17:01,VALID,918.591,VALID,0,VALID,100,VALID,-0.0679233,VALID,18.696,VALID,180,VALID,0,
2005-10-19, 00:18:01,VALID,918.568,VALID,0,VALID,100,VALID,-0.0849042,VALID,18.7084,VALID,180,VALID,0,
2005-10-19, 00:19:01,VALID,918.568,VALID,0,VALID,100,VALID,-0.0339617,VALID,18.7342,VALID,180,VALID,0,
2005-10-19, 00:20:01,VALID,918.564,VALID,0,VALID,100,VALID,-0.0849042,VALID,18.7119,VALID,180,VALID,0.322129,
2005-10-19, 00:21:01,VALID,918.566,VALID,0,VALID,100,VALID,-0.101885,VALID,18.6664,VALID,180,VALID,0.351381,
2005-10-19, 00:22:01,VALID,918.561,VALID,0,VALID,100,VALID,-0.0509425,VALID,18.6309,VALID,180,VALID,0.156605,
2005-10-19, 00:23:01,VALID,918.545,VALID,0,VALID,100,VALID,-0.0849042,VALID,18.6374,VALID,180,VALID,0,
2005-10-19, 00:24:01,VALID,918.516,VALID,0,VALID,100,VALID,-0.0679233,VALID,18.6242,VALID,180,VALID,0.0628811,
2005-10-19, 00:25:01,VALID,918.488,VALID,0,VALID,100,VALID,-0.0509425,VALID,18.6344,VALID,180,VALID,0.0876524,
2005-10-19, 00:26:01,VALID,918.466,VALID,0,VALID,100,VALID,-0.0509425,VALID,18.6244,VALID,180,VALID,0.0548651,
2005-10-19, 00:27:01,VALID,918.454,VALID,0,VALID,100,VALID,-0.0509425,VALID,18.6145,VALID,180,VALID,0,
2005-10-19, 00:28:01,VALID,918.431,VALID,0,VALID,100,VALID,-0.0679233,VALID,18.6277,VALID,180,VALID,0,
2005-10-19, 00:29:01,VALID,918.42,VALID,0,VALID,100,VALID,-0.0849042,VALID,18.6408,VALID,180,VALID,0,
2005-10-19, 00:30:01,VALID,918.403,VALID,0,VALID,100,VALID,-0.0509425,VALID,18.6408,VALID,180,VALID,0.0600229,
2005-10-19, 00:31:01,VALID,918.392,VALID,0,VALID,100,VALID,-0.0849042,VALID,18.6242,VALID,180,VALID,0.295455,
2005-10-19, 00:32:01,VALID,918.376,VALID,0,VALID,100,VALID,-0.0169808,VALID,18.6371,VALID,180,VALID,0.0736328,
2005-10-19, 00:33:00,VALID,918.365,VALID,0,VALID,100,VALID,-0.0849042,VALID,18.6602,VALID,180,VALID,0.00948661,
2005-10-19, 00:34:00,VALID,918.361,VALID,0,VALID,100,VALID,-0.0849042,VALID,18.6403,VALID,180,VALID,0.00563227,
2005-10-19, 00:35:00,VALID,918.37,VALID,0,VALID,100,VALID,-0.0679233,VALID,18.6572,VALID,112,VALID,0.39577,
2005-10-19, 00:36:00,VALID,918.379,VALID,0,VALID,100,VALID,-0.0509425,VALID,18.653,VALID,62,VALID,0.312863,
2005-10-19, 00:37:00,VALID,918.383,VALID,0,VALID,100,VALID,-0.0509425,VALID,18.6632,VALID,62,VALID,0.298018,
2005-10-19, 00:38:00,VALID,918.406,VALID,0,VALID,100,VALID,-0.0679233,VALID,18.686,VALID,62,VALID,0.368786,
2005-10-19, 00:39:00,VALID,918.427,VALID,0,VALID,100,VALID,-0.0339617,VALID,18.6761,VALID,62,VALID,0.219113,
2005-10-19, 00:40:00,VALID,918.448,VALID,0,VALID,100,VALID,-0.0509425,VALID,18.6826,VALID,62,VALID,0.236049,
2005-10-19, 00:41:00,VALID,918.445,VALID,0,VALID,100,VALID,-0.0509425,VALID,18.7116,VALID,58,VALID,0.284157,
2005-10-19, 00:42:00,VALID,918.449,VALID,0,VALID,100,VALID,-0.0679233,VALID,18.7377,VALID,34,VALID,0.354421,
2005-10-19, 00:43:00,VALID,918.441,VALID,0,VALID,100,VALID,-0.0169808,VALID,18.7405,VALID,34,VALID,0.242188,
2005-10-19, 00:44:00,VALID,918.418,VALID,0,VALID,100,VALID,-0.0339617,VALID,18.7504,VALID,24,VALID,0.254092,
2005-10-19, 00:45:00,VALID,918.41,VALID,0,VALID,100,VALID,-0.0169808,VALID,18.7402,VALID,4,VALID,0.523983,
2005-10-19, 00:46:00,VALID,918.407,VALID,0,VALID,100,VALID,-0.0339617,VALID,18.7531,VALID,4,VALID,0.51617,
2005-10-19, 00:47:00,VALID,918.381,VALID,0,VALID,100,VALID,-0.0509425,VALID,18.7732,VALID,9,VALID,0.739826,
2005-10-19, 00:48:00,VALID,918.358,VALID,0,VALID,100,VALID,-0.0169808,VALID,18.769,VALID,16,VALID,0.72832,
2005-10-19, 00:49:00,VALID,918.348,VALID,0,VALID,100,VALID,-0.0509425,VALID,18.7857,VALID,21,VALID,0.776758,
2005-10-19, 00:50:00,VALID,918.335,VALID,0,VALID,100,VALID,-0.0509425,VALID,18.7854,VALID,20,VALID,0.677689,
2005-10-19, 00:51:00,VALID,918.326,VALID,0,VALID,100,VALID,-0.0849042,VALID,18.7857,VALID,16,VALID,0.786156,
2005-10-19, 00:52:00,VALID,918.32,VALID,0,VALID,100,VALID,-0.0509425,VALID,18.7854,VALID,14,VALID,0.576265,
2005-10-19, 00:53:00,VALID,918.301,VALID,0,VALID,100,VALID,0,VALID,18.7857,VALID,13,VALID,0.700238,
2005-10-19, 00:54:00,VALID,918.305,VALID,0,VALID,100,VALID,-0.0169808,VALID,18.7829,VALID,6,VALID,0.611779,
2005-10-19, 00:55:00,VALID,918.303,VALID,0,VALID,100,VALID,-0.0339617,VALID,18.7889,VALID,356,VALID,0.390092,
2005-10-19, 00:56:00,VALID,918.29,VALID,0,VALID,100,VALID,-0.0849042,VALID,18.7991,VALID,6,VALID,0.375977,
2005-10-19, 00:57:00,VALID,918.282,VALID,0,VALID,100,VALID,-0.0679233,VALID,18.7956,VALID,5,VALID,0.216518,
2005-10-19, 00:58:00,VALID,918.274,VALID,0,VALID,100,VALID,-0.0509425,VALID,18.8016,VALID,5,VALID,0.240972,
2005-10-19, 00:59:00,VALID,918.249,VALID,0,VALID,100,VALID,-0.0679233,VALID,18.8055,VALID,5,VALID,0.0554315,
2005-10-19, 01:00:00,VALID,918.254,VALID,0,VALID,100,VALID,-0.0849042,VALID,18.8023,VALID,5,VALID,0,
2005-10-19, 01:01:00,VALID,918.244,VALID,0,VALID,100,VALID,-0.0169808,VALID,18.7986,VALID,5,VALID,0.0578497,
2005-10-19, 01:02:00,VALID,918.234,VALID,0,VALID,100,VALID,-0.0339617,VALID,18.7951,VALID,67,VALID,0.398619,
2005-10-19, 01:03:00,VALID,918.215,VALID,0,VALID,100,VALID,0.0339617,VALID,18.7778,VALID,155,VALID,0.439977,
2005-10-19, 01:04:00,VALID,918.208,VALID,0,VALID,100,VALID,0.0509425,VALID,18.7783,VALID,155,VALID,0.485465,
2005-10-19, 01:05:00,VALID,918.212,VALID,0,VALID,100,VALID,0.0679233,VALID,18.755,VALID,155,VALID,0.195494,
2005-10-19, 01:06:00,VALID,918.219,VALID,0,VALID,100,VALID,0.0169808,VALID,18.7388,VALID,155,VALID,0.00545058,
2005-10-19, 01:07:00,VALID,918.21,VALID,0,VALID,100,VALID,0.0339617,VALID,18.7425,VALID,155,VALID,0,
2005-10-19, 01:08:00,VALID,918.213,VALID,0,VALID,100,VALID,0.0339617,VALID,18.7587,VALID,155,VALID,0.0267578,
2005-10-19, 01:09:00,VALID,918.217,VALID,0,VALID,100,VALID,0,VALID,18.7614,VALID,113,VALID,0.415923,
2005-10-19, 01:10:00,VALID,918.208,VALID,0,VALID,100,VALID,0.0339617,VALID,18.785,VALID,113,VALID,0.349524,
2005-10-19, 01:11:00,VALID,918.195,VALID,0,VALID,100,VALID,0.0679233,VALID,18.7778,VALID,33,VALID,0.718192,
2005-10-19, 01:12:00,VALID,918.18,VALID,0,VALID,100,VALID,0.0509425,VALID,18.8011,VALID,17,VALID,0.592634,
2005-10-19, 01:13:00,VALID,918.17,VALID,0,VALID,100,VALID,0.0509425,VALID,18.7872,VALID,19,VALID,0.733259,
2005-10-19, 01:14:00,VALID,918.157,VALID,0,VALID,100,VALID,0.0509425,VALID,18.7939,VALID,12,VALID,0.652876,
2005-10-19, 01:15:00,VALID,918.151,VALID,0,VALID,100,VALID,0.0679233,VALID,18.7969,VALID,7,VALID,0.676067,
2005-10-19, 01:16:00,VALID,918.148,VALID,0,VALID,100,VALID,0.0509425,VALID,18.8101,VALID,5,VALID,0.626817,
2005-10-19, 01:17:00,VALID,918.153,VALID,0,VALID,100,VALID,0.0679233,VALID,18.8292,VALID,355,VALID,0.363467,
2005-10-19, 01:18:00,VALID,918.143,VALID,0,VALID,100,VALID,0.0339617,VALID,18.8327,VALID,355,VALID,0.0812137,
2005-10-19, 01:19:00,VALID,918.141,VALID,0,VALID,100,VALID,0,VALID,18.8458,VALID,355,VALID,0.267857,
2005-10-19, 01:20:00,VALID,918.138,VALID,0,VALID,100,VALID,0.0339617,VALID,18.8618,VALID,355,VALID,0.421148,
2005-10-19, 01:21:00,VALID,918.128,VALID,0,VALID,100,VALID,0.0169808,VALID,18.8523,VALID,355,VALID,0.329055,
2005-10-19, 01:22:00,VALID,918.107,VALID,0,VALID,100,VALID,0.0509425,VALID,18.8684,VALID,355,VALID,0.337936,
2005-10-19, 01:23:00,VALID,918.077,VALID,0,VALID,100,VALID,0.0509425,VALID,18.8781,VALID,35,VALID,0.684048,
2005-10-19, 01:24:00,VALID,918.05,VALID,0,VALID,100,VALID,0,VALID,18.8687,VALID,45,VALID,0.795922,
2005-10-19, 01:25:00,VALID,918.023,VALID,0,VALID,100,VALID,0.0169808,VALID,18.8655,VALID,49,VALID,0.695139,
2005-10-19, 01:26:00,VALID,918.012,VALID,0,VALID,100,VALID,0.0169808,VALID,18.8682,VALID,47,VALID,0.773251,
2005-10-19, 01:27:00,VALID,917.989,VALID,0,VALID,100,VALID,0.0169808,VALID,18.8677,VALID,56,VALID,0.620916,
2005-10-19, 01:28:00,VALID,917.967,VALID,0,VALID,100,VALID,0.0339617,VALID,18.868,VALID,51,VALID,0.217448,
2005-10-19, 01:29:00,VALID,917.942,VALID,0,VALID,100,VALID,0,VALID,18.8779,VALID,51,VALID,0.0984003,
2005-10-19, 01:30:00,VALID,917.917,VALID,0,VALID,100,VALID,0.0679233,VALID,18.8841,VALID,51,VALID,0.0198864,
2005-10-19, 01:31:00,VALID,917.877,VALID,0,VALID,100,VALID,0,VALID,18.8943,VALID,51,VALID,0,
2005-10-19, 01:32:00,VALID,917.857,VALID,0,VALID,100,VALID,0,VALID,18.8873,VALID,51,VALID,0.150568,
2005-10-19, 01:33:00,VALID,917.82,VALID,0,VALID,100,VALID,0,VALID,18.8836,VALID,51,VALID,0,
2005-10-19, 01:34:00,VALID,917.784,VALID,0,VALID,100,VALID,0.0509425,VALID,18.8876,VALID,51,VALID,0,
2005-10-19, 01:35:00,VALID,917.758,VALID,0,VALID,100,VALID,0.0339617,VALID,18.8714,VALID,51,VALID,0,
2005-10-19, 01:36:00,VALID,917.722,VALID,0,VALID,100,VALID,0,VALID,18.8719,VALID,51,VALID,0,
2005-10-19, 01:37:00,VALID,917.701,VALID,0,VALID,100,VALID,0.0169808,VALID,18.862,VALID,51,VALID,0,
2005-10-19, 01:38:00,VALID,917.667,VALID,0,VALID,100,VALID,0.0339617,VALID,18.8491,VALID,51,VALID,0,
2005-10-19, 01:39:00,VALID,917.648,VALID,0,VALID,100,VALID,0.0339617,VALID,18.859,VALID,51,VALID,0.109189,
2005-10-19, 01:40:00,VALID,917.65,VALID,0,VALID,100,VALID,0.0169808,VALID,18.826,VALID,51,VALID,0.460747,
2005-10-19, 01:41:00,VALID,917.634,VALID,0,VALID,100,VALID,0,VALID,18.8039,VALID,51,VALID,0.505265,
2005-10-19, 01:42:00,VALID,917.62,VALID,0,VALID,100,VALID,0.0339617,VALID,18.8039,VALID,28,VALID,0.634028,
2005-10-19, 01:43:00,VALID,917.614,VALID,0,VALID,100,VALID,0,VALID,18.7972,VALID,26,VALID,0.8391,
2005-10-19, 01:44:00,VALID,917.588,VALID,0,VALID,100,VALID,0.0509425,VALID,18.7743,VALID,26,VALID,0.776344,
2005-10-19, 01:45:00,VALID,917.581,VALID,0,VALID,100,VALID,0.0169808,VALID,18.7872,VALID,26,VALID,0.668056,
2005-10-19, 01:46:00,VALID,917.55,VALID,0,VALID,100,VALID,0,VALID,18.7974,VALID,26,VALID,0.686821,
2005-10-19, 01:47:00,VALID,917.525,VALID,0,VALID,100,VALID,0,VALID,18.7838,VALID,26,VALID,0.583452,
2005-10-19, 01:48:00,VALID,917.504,VALID,0,VALID,100,VALID,0.0169808,VALID,18.7748,VALID,26,VALID,0.48819,
2005-10-19, 01:49:00,VALID,917.476,VALID,0,VALID,100,VALID,0,VALID,18.7358,VALID,26,VALID,0.593164,
2005-10-19, 01:50:00,VALID,917.44,VALID,0,VALID,100,VALID,0.0339617,VALID,18.6846,VALID,26,VALID,0.801669,
2005-10-19, 01:51:00,VALID,917.395,VALID,0,VALID,100,VALID,0.0169808,VALID,18.6648,VALID,27,VALID,0.983842,
2005-10-19, 01:52:00,VALID,917.363,VALID,0,VALID,100,VALID,0.0509425,VALID,18.6745,VALID,31,VALID,0.898619,
2005-10-19, 01:53:00,VALID,917.33,VALID,0,VALID,100,VALID,0.0339617,VALID,18.6749,VALID,46,VALID,0.816406,
2005-10-19, 01:54:00,VALID,917.3,VALID,0,VALID,100,VALID,0.0169808,VALID,18.6749,VALID,58,VALID,0.677641,
2005-10-19, 01:55:00,VALID,917.276,VALID,0,VALID,100,VALID,0.0339617,VALID,18.6486,VALID,58,VALID,0.448847,
2005-10-19, 01:56:00,VALID,917.247,VALID,0,VALID,100,VALID,0.0169808,VALID,18.6096,VALID,58,VALID,0.482955,
2005-10-19, 01:57:00,VALID,917.241,VALID,0,VALID,100,VALID,0.0169808,VALID,18.6071,VALID,58,VALID,0.543899,
2005-10-19, 01:58:00,VALID,917.22,VALID,0,VALID,100,VALID,0.0169808,VALID,18.5746,VALID,118,VALID,0.643403,
2005-10-19, 01:59:00,VALID,917.221,VALID,0,VALID,100,VALID,0.0509425,VALID,18.5354,VALID,143,VALID,0.567383,
2005-10-19, 02:00:00,VALID,917.214,VALID,0,VALID,100,VALID,-0.0169808,VALID,18.4902,VALID,161,VALID,0.880766,
2005-10-19, 02:01:00,VALID,917.208,VALID,0,VALID,100,VALID,0.0509425,VALID,18.481,VALID,164,VALID,0.927827,
2005-10-19, 02:02:00,VALID,917.213,VALID,0,VALID,100,VALID,0.0339617,VALID,18.4328,VALID,171,VALID,0.804501,
2005-10-19, 02:03:00,VALID,917.207,VALID,0,VALID,100,VALID,0.0169808,VALID,18.4099,VALID,170,VALID,0.568788,
2005-10-19, 02:04:00,VALID,917.205,VALID,0,VALID,100,VALID,0,VALID,18.4032,VALID,170,VALID,0.393945,
2005-10-19, 02:05:00,VALID,917.214,VALID,0,VALID,100,VALID,0.0169808,VALID,18.3811,VALID,170,VALID,0.0213068,
2005-10-19, 02:06:00,VALID,917.212,VALID,0,VALID,100,VALID,0,VALID,18.3652,VALID,170,VALID,0,
2005-10-19, 02:07:00,VALID,917.213,VALID,0,VALID,100,VALID,0.0169808,VALID,18.326,VALID,170,VALID,0,
2005-10-19, 02:08:00,VALID,917.216,VALID,0,VALID,100,VALID,0.0339617,VALID,18.2812,VALID,170,VALID,0.0651677,
2005-10-19, 02:09:00,VALID,917.207,VALID,0,VALID,100,VALID,0,VALID,18.233,VALID,170,VALID,0.0203887,
2005-10-19, 02:10:00,VALID,917.184,VALID,0,VALID,100,VALID,0.0339617,VALID,18.197,VALID,170,VALID,0,
2005-10-19, 02:11:00,VALID,917.169,VALID,0,VALID,100,VALID,0.0339617,VALID,18.1876,VALID,170,VALID,0,
2005-10-19, 02:12:00,VALID,917.159,VALID,0,VALID,100,VALID,0,VALID,18.1807,VALID,170,VALID,0,
2005-10-19, 02:13:00,VALID,917.137,VALID,0,VALID,100,VALID,0,VALID,18.2037,VALID,170,VALID,0.0862926,
2005-10-19, 02:14:00,VALID,917.141,VALID,0,VALID,100,VALID,0,VALID,18.2206,VALID,170,VALID,0.291921,
2005-10-19, 02:15:00,VALID,917.136,VALID,0,VALID,100,VALID,0,VALID,18.2298,VALID,170,VALID,0.249238,
2005-10-19, 02:16:00,VALID,917.124,VALID,0,VALID,100,VALID,0,VALID,18.2619,VALID,170,VALID,0.103051,
2005-10-19, 02:17:00,VALID,917.142,VALID,0,VALID,100,VALID,-0.0169808,VALID,18.2785,VALID,170,VALID,0.00625,
2005-10-19, 02:18:00,VALID,917.159,VALID,0,VALID,100,VALID,-0.0679233,VALID,18.2662,VALID,170,VALID,0,
2005-10-19, 02:19:00,VALID,917.17,VALID,0,VALID,100,VALID,-0.101885,VALID,18.2404,VALID,170,VALID,0,
2005-10-19, 02:20:00,VALID,917.208,VALID,0,VALID,100,VALID,-0.0509425,VALID,18.2113,VALID,170,VALID,0,
2005-10-19, 02:21:00,VALID,917.237,VALID,0,VALID,100,VALID,-0.0849042,VALID,18.1308,VALID,170,VALID,0,
2005-10-19, 02:22:00,VALID,917.248,VALID,0,VALID,100,VALID,-0.0849042,VALID,18.0273,VALID,136,VALID,0.325721,
2005-10-19, 02:23:00,VALID,917.262,VALID,0,VALID,100,VALID,-0.0679233,VALID,17.9823,VALID,74,VALID,0.407118,
2005-10-19, 02:24:00,VALID,917.247,VALID,0,VALID,100,VALID,-0.0849042,VALID,17.9403,VALID,74,VALID,0.493641,
2005-10-19, 02:25:00,VALID,917.225,VALID,0,VALID,100,VALID,-0.0849042,VALID,17.8981,VALID,74,VALID,0.341388,
2005-10-19, 02:26:00,VALID,917.209,VALID,0,VALID,100,VALID,-0.0679233,VALID,17.8885,VALID,74,VALID,0.336825,
2005-10-19, 02:27:00,VALID,917.203,VALID,0,VALID,100,VALID,-0.101885,VALID,17.9373,VALID,74,VALID,0.251953,
2005-10-19, 02:28:00,VALID,917.208,VALID,0,VALID,100,VALID,-0.101885,VALID,18.0347,VALID,74,VALID,0.139898,
2005-10-19, 02:29:00,VALID,917.199,VALID,0,VALID,100,VALID,-0.0849042,VALID,18.0473,VALID,74,VALID,0.293857,
2005-10-19, 02:30:00,VALID,917.224,VALID,0,VALID,100,VALID,-0.101885,VALID,18.0409,VALID,74,VALID,0.340774,
2005-10-19, 02:31:00,VALID,917.216,VALID,0,VALID,100,VALID,-0.0679233,VALID,18.0762,VALID,74,VALID,0.269804,
2005-10-19, 02:32:00,VALID,917.228,VALID,0,VALID,100,VALID,-0.101885,VALID,18.0951,VALID,74,VALID,0.276786,
2005-10-19, 02:33:00,VALID,917.232,VALID,0,VALID,100,VALID,-0.0679233,VALID,18.183,VALID,74,VALID,0.138579,
2005-10-19, 02:34:00,VALID,917.24,VALID,0,VALID,100,VALID,-0.101885,VALID,18.2146,VALID,74,VALID,0.00831117,
2005-10-19, 02:35:00,VALID,917.244,VALID,0,VALID,100,VALID,0.0339617,VALID,18.2658,VALID,74,VALID,0,
2005-10-19, 02:36:00,VALID,917.235,VALID,0,VALID,100,VALID,0.0169808,VALID,18.311,VALID,74,VALID,0.09375,
2005-10-19, 02:37:00,VALID,917.243,VALID,0,VALID,100,VALID,-0.0169808,VALID,18.2851,VALID,74,VALID,0.392671,
2005-10-19, 02:38:00,VALID,917.249,VALID,0,VALID,100,VALID,0,VALID,18.2946,VALID,74,VALID,0.572266,
2005-10-19, 02:39:00,VALID,917.234,VALID,0,VALID,100,VALID,0,VALID,18.3594,VALID,70,VALID,0.837612,
2005-10-19, 02:40:00,VALID,917.24,VALID,0,VALID,100,VALID,0.0169808,VALID,18.4205,VALID,52,VALID,1.07124,
2005-10-19, 02:41:00,VALID,917.24,VALID,0,VALID,100,VALID,0.0169808,VALID,18.4593,VALID,49,VALID,0.838299,
2005-10-19, 02:42:00,VALID,917.252,VALID,0,VALID,100,VALID,0,VALID,18.463,VALID,49,VALID,0.697731,
2005-10-19, 02:43:00,VALID,917.261,VALID,0,VALID,100,VALID,0.0339617,VALID,18.4498,VALID,49,VALID,0.687691,
2005-10-19, 02:44:00,VALID,917.265,VALID,0,VALID,100,VALID,0,VALID,18.4369,VALID,49,VALID,0.755504,
2005-10-19, 02:45:00,VALID,917.295,VALID,0,VALID,100,VALID,0,VALID,18.3885,VALID,49,VALID,0.725347,
2005-10-19, 02:46:00,VALID,917.315,VALID,0,VALID,100,VALID,0.0169808,VALID,18.3719,VALID,37,VALID,0.580915,
2005-10-19, 02:47:00,VALID,917.339,VALID,0,VALID,100,VALID,0.0169808,VALID,18.356,VALID,27,VALID,0.528832,
2005-10-19, 02:48:00,VALID,917.358,VALID,0,VALID,100,VALID,0,VALID,18.3726,VALID,24,VALID,0.380208,
2005-10-19, 02:49:00,VALID,917.371,VALID,0,VALID,100,VALID,0.0339617,VALID,18.3652,VALID,22,VALID,0.369665,
2005-10-19, 02:50:00,VALID,917.386,VALID,0,VALID,100,VALID,0.0339617,VALID,18.3686,VALID,22,VALID,0.379542,
2005-10-19, 02:51:00,VALID,917.381,VALID,0,VALID,100,VALID,0.0339617,VALID,18.3495,VALID,22,VALID,0.244606,
2005-10-19, 02:52:00,VALID,917.373,VALID,0,VALID,100,VALID,0.0169808,VALID,18.3566,VALID,22,VALID,0.0482955,
2005-10-19, 02:53:00,VALID,917.386,VALID,0,VALID,100,VALID,0,VALID,18.3301,VALID,22,VALID,0.00109012,
2005-10-19, 02:54:00,VALID,917.398,VALID,0,VALID,100,VALID,-0.0169808,VALID,18.311,VALID,22,VALID,0,
2005-10-19, 02:55:00,VALID,917.399,VALID,0,VALID,100,VALID,0,VALID,18.2752,VALID,22,VALID,0.036044,
2005-10-19, 02:56:00,VALID,917.406,VALID,0,VALID,100,VALID,0.0169808,VALID,18.2489,VALID,22,VALID,0.137355,
2005-10-19, 02:57:00,VALID,917.409,VALID,0,VALID,100,VALID,0.0339617,VALID,18.2296,VALID,22,VALID,0.357329,
2005-10-19, 02:58:00,VALID,917.408,VALID,0,VALID,100,VALID,0.0169808,VALID,18.2109,VALID,20,VALID,0.293968,
2005-10-19, 02:59:00,VALID,917.405,VALID,0,VALID,100,VALID,0.0169808,VALID,18.1747,VALID,22,VALID,0.4,
2005-10-19, 03:00:00,VALID,917.383,VALID,0,VALID,100,VALID,0.0169808,VALID,18.1717,VALID,100,VALID,0.490412,
2005-10-19, 03:01:00,VALID,917.368,VALID,0,VALID,100,VALID,0,VALID,18.1622,VALID,112,VALID,0.407848,
2005-10-19, 03:02:00,VALID,917.349,VALID,0,VALID,100,VALID,0.0339617,VALID,18.1334,VALID,155,VALID,0.71543,
2005-10-19, 03:03:00,VALID,917.355,VALID,0,VALID,100,VALID,0,VALID,18.1106,VALID,170,VALID,0.533854,
2005-10-19, 03:04:00,VALID,917.357,VALID,0,VALID,100,VALID,-0.0339617,VALID,18.1136,VALID,188,VALID,0.568859,
2005-10-19, 03:05:00,VALID,917.363,VALID,0,VALID,100,VALID,-0.0169808,VALID,18.117,VALID,168,VALID,0.461868,
2005-10-19, 03:06:00,VALID,917.375,VALID,0,VALID,100,VALID,0.0339617,VALID,18.1329,VALID,162,VALID,0.422066,
2005-10-19, 03:07:00,VALID,917.386,VALID,0,VALID,100,VALID,0.0339617,VALID,18.1618,VALID,162,VALID,0.253811,
2005-10-19, 03:08:00,VALID,917.392,VALID,0,VALID,100,VALID,0.0339617,VALID,18.1717,VALID,162,VALID,0.285247,
2005-10-19, 03:09:00,VALID,917.398,VALID,0,VALID,100,VALID,0,VALID,18.1809,VALID,162,VALID,0.0375744,
2005-10-19, 03:10:00,VALID,917.414,VALID,0,VALID,100,VALID,0,VALID,18.2037,VALID,162,VALID,0.000571646,
2005-10-19, 03:11:00,VALID,917.429,VALID,0,VALID,100,VALID,0.0169808,VALID,18.2005,VALID,162,VALID,0.0107195,
2005-10-19, 03:12:00,VALID,917.444,VALID,0,VALID,100,VALID,0.0169808,VALID,18.2171,VALID,162,VALID,0,
2005-10-19, 03:13:00,VALID,917.456,VALID,0,VALID,100,VALID,-0.0169808,VALID,18.2169,VALID,162,VALID,0,
2005-10-19, 03:14:00,VALID,917.473,VALID,0,VALID,100,VALID,0.0169808,VALID,18.2333,VALID,120,VALID,0.244141,
2005-10-19, 03:15:00,VALID,917.489,VALID,0,VALID,100,VALID,0,VALID,18.1491,VALID,38,VALID,0.543241,
2005-10-19, 03:16:00,VALID,917.488,VALID,0,VALID,100,VALID,0.0169808,VALID,18.1039,VALID,38,VALID,0.24564,
2005-10-19, 03:17:00,VALID,917.489,VALID,0,VALID,100,VALID,0.0169808,VALID,18.0976,VALID,38,VALID,0,
2005-10-19, 03:18:00,VALID,917.481,VALID,0,VALID,100,VALID,0.0169808,VALID,18.0976,VALID,38,VALID,0.167436,
2005-10-19, 03:19:00,VALID,917.462,VALID,0,VALID,100,VALID,0,VALID,18.094,VALID,38,VALID,0.259487,
2005-10-19, 03:20:00,VALID,917.454,VALID,0,VALID,100,VALID,0,VALID,18.1684,VALID,29,VALID,0.305556,
2005-10-19, 03:21:00,VALID,917.427,VALID,0,VALID,100,VALID,0,VALID,18.2845,VALID,15,VALID,0.413681,
2005-10-19, 03:22:00,VALID,917.398,VALID,0,VALID,100,VALID,0,VALID,18.3594,VALID,15,VALID,0.661577,
2005-10-19, 03:23:00,VALID,917.39,VALID,0,VALID,100,VALID,0,VALID,18.3723,VALID,24,VALID,0.848704,
2005-10-19, 03:24:00,VALID,917.391,VALID,0,VALID,100,VALID,0,VALID,18.3908,VALID,24,VALID,0.693677,
2005-10-19, 03:25:00,VALID,917.381,VALID,0,VALID,100,VALID,0,VALID,18.3912,VALID,19,VALID,0.529726,
2005-10-19, 03:26:00,VALID,917.363,VALID,0,VALID,100,VALID,0.0339617,VALID,18.3845,VALID,19,VALID,0.356286,
2005-10-19, 03:27:00,VALID,917.363,VALID,0,VALID,100,VALID,0.0169808,VALID,18.3617,VALID,19,VALID,0.197917,
2005-10-19, 03:28:00,VALID,917.341,VALID,0,VALID,100,VALID,0,VALID,18.3423,VALID,19,VALID,0.404514,
2005-10-19, 03:29:00,VALID,917.338,VALID,0,VALID,100,VALID,0,VALID,18.3652,VALID,19,VALID,0.72526,
2005-10-19, 03:30:00,VALID,917.345,VALID,0,VALID,100,VALID,0,VALID,18.3751,VALID,19,VALID,0.778888,
2005-10-19, 03:31:00,VALID,917.344,VALID,0,VALID,100,VALID,0,VALID,18.3622,VALID,19,VALID,0.990371,
2005-10-19, 03:32:00,VALID,917.346,VALID,0,VALID,100,VALID,0,VALID,18.3656,VALID,30,VALID,1.23401,
2005-10-19, 03:33:00,VALID,917.369,VALID,0,VALID,100,VALID,0,VALID,18.3848,VALID,31,VALID,1.04688,
2005-10-19, 03:34:00,VALID,917.401,VALID,0,VALID,100,VALID,0,VALID,18.3686,VALID,18,VALID,0.348214,
2005-10-19, 03:35:00,VALID,917.401,VALID,0,VALID,100,VALID,0.0339617,VALID,18.3843,VALID,293,VALID,0.567535,
2005-10-19, 03:36:00,VALID,917.403,VALID,0,VALID,100,VALID,0.0339617,VALID,18.4685,VALID,287,VALID,0.225472,
2005-10-19, 03:37:00,VALID,917.414,VALID,0,VALID,100,VALID,0.0339617,VALID,18.5299,VALID,287,VALID,0.156994,
2005-10-19, 03:38:00,VALID,917.412,VALID,0,VALID,100,VALID,0,VALID,18.5077,VALID,287,VALID,0.159157,
2005-10-19, 03:39:00,VALID,917.42,VALID,0,VALID,100,VALID,0,VALID,18.4683,VALID,287,VALID,0.201308,
2005-10-19, 03:40:00,VALID,917.458,VALID,0,VALID,100,VALID,0,VALID,18.433,VALID,287,VALID,0,
2005-10-19, 03:41:00,VALID,917.484,VALID,0,VALID,100,VALID,0,VALID,18.3942,VALID,287,VALID,0.170873,
2005-10-19, 03:42:00,VALID,917.484,VALID,0,VALID,100,VALID,0,VALID,18.388,VALID,287,VALID,0.0902549,
2005-10-19, 03:43:00,VALID,917.462,VALID,0,VALID,100,VALID,0,VALID,18.3942,VALID,287,VALID,0.0677083,
2005-10-19, 03:44:00,VALID,917.45,VALID,0,VALID,100,VALID,-0.0169808,VALID,18.4138,VALID,287,VALID,0.141667,